Location: Park Creek Village Mobile Home Park
(38.2885°N, 122.4714°W)
Time: 04:35:35
(UTC+00:00)

Cosmos 2278 Rocket - Pass Details

Date: 14 December 2019
Orbit: 843 x 844 km, 71.0° (Epoch: 23 January)

Event Time Altitude Azimuth Distance (km) Brightness Sun altitude
Rises 13:58:58 0° 170° (S) 3,384 5.7 -15.2°
Reaches altitude 10° 14:01:43 10° 159° (SSE) 2,454 5.2 -14.6°
Maximum altitude 14:06:25 28° 102° (ESE) 1,547 4.5 -13.8°
Drops below altitude 10° 14:11:06 10° 46° (NE) 2,467 5.0 -12.9°
Sets 14:13:52 0° 35° (NE) 3,406 5.6 -12.4°
